Regional Weather Roundup
Issued by NWS Goodland, KS

Home | Current Version | Previous Version | Graphics & Text | Print | Product List | Glossary On
Versions: 1 2 3 4 5 6 7 8 9 10 11 12 13 14 15 16 17 18 19 20 21 22 23 24 25 26 27 28 29 30 31 32 33 34 35 36 37 38 39 40 41 42 43 44 45 46 47 48 49 50
000
ASUS43 KGLD 282308
RWRGLD

GOODLAND FORECAST AREA HOURLY WEATHER ROUNDUP
NATIONAL WEATHER SERVICE GOODLAND KS
500 PM MDT WED JUN 28 2017

...OFFICIAL OBSERVATIONS...

CITY           SKY/WX    TMP DP  RH WIND       PRES   REMARKS
GOODLAND KS    SUNNY     89  46  22 SE5       29.78F
HILL CITY KS   SUNNY     93  60  33 E5        29.70F
IMPERIAL NEB   SUNNY     90  38  16 VRB3      29.76F
MCCOOK NEB     MOSUNNY   92  50  23 E8        29.72F
AKRON CO       PTSUNNY   85  40  20 S13G26    29.84F
BURLINGTON CO  SUNNY     88  47  24 SE9       29.82F
LIMON CO       PTSUNNY   88  38  17 SE20G28   29.86F
$$

...UNOFFICIAL OBSERVATIONS...

CITY           SKY/WX    TMP DP  RH WIND       PRES   REMARKS
LENORA KS        N/A     93  32  11 MISG        N/A
NORTON KS      SUNNY     93  41  16 E6        29.70F
SHARON SPRINGS   N/A     90  53  28 E6          N/A
TRENTON NEB      N/A     93  32  11 CALM        N/A
KIT CARSON CO    N/A     90  48  23 MISG        N/A
YUMA CO        FAIR      81  50  34 S8        29.82S
$$



USA.gov is the U.S. government's official web portal to all federal, state and local government web resources and services.